Home   Weather   Qikiqtarjuaq   Past weeks

Flag for Canada Past Weather in Qikiqtarjuaq, Nunavut, Canada — Yesterday and Last 2 Weeks

Now
-2 °F

Light snow. Overcast.


Feels Like: -22 °F
Forecast: -10 / -1 °F
Wind: 14 mph from Northeast

Location: Broughton Island Airport

Current Time: Jan 19, 2017 at 9:58:45 am

Latest Report: Jan 19, 2017 at 9:00 am


Visibility: 4 mi

Pressure: 29.84 "Hg

Humidity: 77%

Dew Point: -8 °F

Location of QikiqtarjuaqLocation

Past Weather in Qikiqtarjuaq — Graph

°F

Qikiqtarjuaq Temperature Yesterday

Maximum temperature yesterday: 5 °F (at 12:00 am)
Minimum temperature yesterday: -11 °F (at 10:00 pm)
Average temperature yesterday: -1 °F

High & Low Weather Summary for the Past Weeks

 TemperatureHumidityPressure
High5 °F (Jan 12, 11:00 pm)92% (Jan 5, 12:00 am)30.17 "Hg (Jan 5, 12:00 am)
Low-26 °F (Jan 16, 7:00 pm)59% (Jan 15, 5:00 am)29.15 "Hg (Jan 15, 5:24 am)
Average-8 °F79%29.66 "Hg
* Reported Jan 4 8:00 am — Jan 19 8:34 am, Qikiqtarjuaq, Weather by CustomWeather, © 2017

Note: Actual official high and low records may vary slightly from our data, if they occured in-between our weather recording intervals... More about our weather records

Advertising

Qikiqtarjuaq Weather History for the Previous 24 Hours

Scroll right to see more
 ConditionsComfort  
Time TempWeatherWind HumidityBarometerVisibility
8:34 am
Thu, Jan 19
-2 °FLight snow. Overcast.12 mph84%29.83 "Hg5 mi
8:00 am-2 °FLight snow. Overcast.12 mph84%29.82 "Hg5 mi
7:00 am-2 °FLight snow. Overcast.8 mph84%29.80 "Hg9 mi
6:00 am-2 °FLight snow. Overcast.8 mph84%29.78 "Hg9 mi
5:00 am-2 °FLight snow. Overcast.8 mph84%29.75 "Hg9 mi
4:43 am-2 °FOvercast.8 mph84%29.73 "Hg9 mi
4:00 am0 °FOvercast.8 mph84%29.71 "Hg9 mi
3:33 am0 °FOvercast.7 mph84%29.70 "Hg9 mi
3:00 am0 °FLight snow. Overcast.9 mph84%29.67 "Hg9 mi
2:00 am-2 °FLight snow. Mostly cloudy.8 mph92%29.64 "Hg8 mi
1:19 am-6 °FLight snow. Mostly cloudy.8 mph92%29.62 "Hg9 mi
1:07 am-4 °FLight snow. Mostly cloudy.No wind84%29.61 "Hg9 mi
12:00 am-11 °FClear.3 mph91%29.56 "Hg9 mi
11:00 pm
Wed, Jan 18
-9 °FClear.No wind92%29.53 "Hg9 mi
10:00 pm-11 °FClear.3 mph76%29.51 "Hg9 mi
9:00 pm-9 °FClear.8 mph84%29.49 "Hg9 mi
8:00 pm-4 °FClear.2 mph71%29.46 "Hg9 mi
7:00 pm-2 °FClear.5 mph71%29.43 "Hg9 mi
6:00 pm0 °FClear.13 mph84%29.42 "Hg9 mi
5:00 pm1 °FClear.7 mph78%29.40 "Hg9 mi
4:00 pm0 °FClear.6 mph78%29.38 "Hg15 mi
3:00 pm0 °FClear.9 mph78%29.36 "Hg15 mi
2:00 pm3 °FPassing clouds.6 mph78%29.34 "Hg15 mi
1:00 pm3 °FPartly sunny.5 mph85%29.31 "Hg15 mi
12:00 pm5 °FOvercast.No wind78%29.30 "Hg15 mi
11:00 am5 °FOvercast.5 mph78%29.29 "Hg15 mi
10:00 am3 °FOvercast.5 mph78%29.29 "Hg15 mi
9:00 am1 °FOvercast.6 mph78%29.29 "Hg15 mi
Weather by CustomWeather, © 2017

See weather overviewHow to use our weather pages